Regional Weather Roundup
Issued by NWS

Home | Current Version | Previous Version | Text Only | Print | Product List | Glossary On
Versions: 1 2 3 4 5 6 7 8 9 10 11 12 13 14 15 16 17 18 19 20 21 22 23 24 25 26 27 28 29 30 31 32 33 34 35 36 37 38 39 40 41 42 43 44 45 46 47 48
000
ASUS42 KFFC 310403
RWRGA
WEATHER ROUNDUP FOR GEORGIA
NATIONAL WEATHER SERVICE PEACHTREE CITY GA
1200 AM EDT THU JUL 31 2014

NOTE: "FAIR" INDICATES FEW OR NO CLOUDS BELOW 12,000 FEET WITH NO
SIGNIFICANT WEATHER AND/OR OBSTRUCTIONS TO VISIBILITY.

* = USE WITH CAUTION. THE STATIONS MARKED WITH AN ASTERISK MAY NOT
REPORT WEATHER SUCH AS PRECIPITATION, FOG, OR THUNDER AND ARE NOT
QUALITY CONTROLLED BY NWS.

THE REMARK "TC" DENOTES TEMPERATURE READING IN DEGREES CELSIUS.

GAZ001>058-310500-
NORTH GEORGIA

CITY           SKY/WX    TMP DP  RH WIND       PRES   REMARKS
ATLANTA        MOCLDY    75  57  53 N8        30.05S
ATHENS         MOCLDY    71  62  73 E6        30.06R
CHAMBLEE       MOCLDY    71  58  63 CALM      30.06S
PEACHTREE CITY PTCLDY    68  62  81 CALM      30.05S
ROME           CLOUDY    69  59  70 N3        30.06S
WEST ATLANTA   CLOUDY    69  61  75 CALM      30.05S
GAINESVILLE    MOCLDY    71  61  70 CALM      30.10R
CARTERSVILLE   CLOUDY    69  57  65 CALM      30.07R


CITY           SKY/WX    TMP DP  RH WIND       PRES   REMARKS
DALTON*        CLOUDY    66  59  77 CALM      30.07S
MARIETTA       CLOUDY    72  60  64 NE2       30.07R
$$

GAZ059>098-102>109-310500-
CENTRAL GEORGIA

CITY           SKY/WX    TMP DP  RH WIND       PRES   REMARKS
AUGUSTA-BUSH   CLOUDY    73  69  87 CALM      30.03R
AUGUSTA-DANIEL CLOUDY    78  67  68 E5        30.04S
COLUMBUS       PTCLDY    72  62  71 CALM      30.02S
MACON          PTCLDY    68  67  96 W3        30.02R
ROBINS AFB     PTCLDY    71  67  87 CALM      30.01S


CITY           SKY/WX    TMP DP  RH WIND       PRES   REMARKS
LAGRANGE*      PTCLDY    70  66  88 CALM      30.04S
SYLVANIA*      MOCLDY    73  72  96 CALM      30.03F
MILLEDGEVILLE* PTCLDY    73  59  60 CALM      30.03R
$$

GAZ099>101-110>166-310500-
SOUTH GEORGIA

CITY           SKY/WX    TMP DP  RH WIND       PRES   REMARKS
SAVANNAH       PTCLDY    77  69  76 E9        30.01S
VALDOSTA       CLEAR     72  62  71 CALM      29.99F
ALMA           CLEAR     77  71  82 E6        29.99S
ST SIMONS      PTCLDY    81  74  79 E8        29.98F
FT STEWART     PTCLDY    76  73  90 NE3       29.99S
ALBANY         CLEAR     70  62  76 CALM      30.02S
HUNTER AFB     MOCLDY    77  72  83 NE7       29.99S
BRUNSWICK      PTCLDY    77  73  88 CALM      29.99F


CITY           SKY/WX    TMP DP  RH WIND       PRES   REMARKS
BAINBRIDGE*    CLEAR     73  68  83 CALM      30.01R
MOULTRIE*      CLEAR     72  66  83 CALM      30.01S
VIDALIA*         N/A     77  72  83 CALM      30.01R
WAYCROSS*      CLOUDY    81  75  83 SE5       29.99S
DOUGLAS*       MOCLDY    79  61  53 CALM      30.01S
$$



USA.gov is the U.S. government's official web portal to all federal, state and local government web resources and services.